STARLINK-32540, 61723

Orbit data source: Space-Track

STARLINK-32540, 61723 is a payload satellite owned by SpaceX/Seattle (US) in LEO that was launched on Wed, 30 Oct 2024 UTC via an FALCON 9 launch vehicle from the Air Force Eastern Test Range (AFETR). Payload-class satellites include a variety of spacecraft equipped with specific instruments for various scientific and technological missions. These include communications satellites like Starlink; space stations such as the ISS; scientific satellites like the Hubble; Earth observation satellites from companies like Planet Labs, Umbra, and HawkEye 360; GPS; miniature CubeSats for education and research; and military/defense satellites.

Loading next visibility...
Identifier
61723, 2024-196S
Orbit
LEO
Country
Flag of USUS
Related business
Manufacturer
SpaceX/Seattle
Mission
Operational Commercial Communications
Bus & Motor
STARLINK V2M, Unknown motor
Mass
730 kg wet, ~700 kg dry
Launch date (UTC)
2024-10-30 (2 years ago)
Launch vehicle
FALCON 9
Launch site
Air Force Eastern Test Range (AFETR)
Object type
Payload
Rocket body
Debris
Shape & HBR
Box + 2 Pan, 17.7 m
Radar Cross Section
33.884 m², Large (>1 m²)

Expand to show TLE details & history
Last TLE update: 14 hours ago

TLE from 14 hours ago
0 STARLINK-32540
1 61723U 24196S   26175.03054105  .00000072  00000-0  13278-4 0  9994
2 61723  53.1591 290.9345 0001490  81.6439 278.4732 15.34396160 93948
Epoch: 2026-06-24T00:43Z
TLE epoch observation values (Epoch: 2026-06-24T00:43:58.746Z)
Latitude
-0.00007°
Longitude
7.74607°
Altitude
463.466 km
Speed
7.636 km/s
True Right ascension
19h 23m 44s
True Declination
0° 00' 00"
Sunlit
Object was in full shadow at epoch
Visualization orbit readout
Latitude
Unknown
Longitude
Unknown
Altitude
Unknown
Speed
Unknown
Apparent Right ascension
Unknown
Apparent Declination
Unknown
Sunlit
N/A
Visualization observer readout
Local Sidereal Time
02:14:16
Azimuth
Unknown
Elevation
Unknown
Doppler factor
Unknown
Orbital elements
Apogee altitude
463.991 km
Perigee altitude
461.952 km
Semi-major axis
6,841.109 km
Eccentricity
0.00015
Inclination
53.1591°
RAAN
290.9345°
Arg. of periapsis
81.6439°
True anomaly
278.45631°
Mean anomaly
278.4732°
Eccentric anomaly
278.46476°
Mean motion
3.83578 °/min
Orbital period
93.85 mins
BSTAR
0.000013278
Loading maneuver chart data...
Computing Atmospheric mass density...
Loading historical data...
Loading historical data...
Loading historical data...
Loading historical data...
Loading historical data...
Loading historical data...
Loading historical data...

Documentation

Showing up to 5 results
|